GAOFEN-1

Last updated on Thu Oct 30 2025 00:02:31 GMT+0000 (Coordinated Universal Time)

1 39150U 13018A 25302.51713140 .00001045 00000+0 15701-3 0 9991 2 39150 97.9373 13.9470 0016691 290.8047 69.1374 14.76530557674207
UTC large
Height (km)
Speed (km/s)
/
Latitude / Longitude
Inclination (degrees)
Orbital Period (minutes)
Azimuth
Elevation
Range (km)
Doppler Factor

Next 0 passes for location: London (51.5072 / 0.1276)

Sorry there are no passes over London.